Location: Cran-Gévrier
(45.9039°N, 6.1012°E)
Time: 16:50:14
(UTC+00:00)

FENGYUN 1C DEB - Visible Passes

Search period start: 08 September 2024 00:00
Search period end: 18 September 2024 00:00
Orbit: 591 x 935 km, 98.3° (Epoch: 07 September)

Date Brightness Start Highest point End Pass type
(mag) Time Alt. Az. Time Alt. Az. Time Alt. Az.
10 Sep ? 18:37:06 10° WSW 18:39:15 13° W 18:41:22 10° WNW visible
13 Sep ? 18:22:56 10° SW 18:25:53 17° W 18:28:44 10° NW visible
16 Sep ? 18:08:53 10° SSW 18:12:21 22° W 18:15:41 10° NW visible
